Wind_Speed
11 11 11 12 13 14 15 16 17 19 18 15 13 8 7 9 10 9 7 6 5 6 7 8 8 7 6 5 4 3 2 2 2 3 4 5 6 6 7 8 8 8 8 8 8 8 7 7 6
13 13 13 14 15 16 17 18 19 20 20 17 14 8 6 7 9 9 8 6 6 6 8 9 8 7 6 4 3 2 1 1 2 4 5 6 6 7 8 8 9 9 9 9 9 8 7 7 6
15 15 15 16 17 18 19 20 21 21 20 18 14 9 6 5 7 10 8 7 6 7 9 9 8 7 6 4 3 2 1 2 3 4 6 6 7 8 9 10 10 10 10 10 10 9 8 7 6
17 16 16 17 19 20 21 21 21 21 20 18 13 10 7 7 6 8 8 7 7 8 9 9 8 7 6 4 3 3 3 4 5 5 6 8 9 10 11 12 12 12 12 12 12 11 10 9 7
17 17 18 19 20 22 23 23 23 22 21 19 15 13 11 7 7 7 8 8 8 9 10 9 8 7 6 5 4 4 5 5 6 7 8 9 10 12 13 13 14 14 14 14 14 13 12 10 9
18 18 19 20 22 24 25 24 24 23 22 19 16 13 12 8 8 9 8 9 9 10 11 10 8 7 6 5 5 6 6 7 8 9 10 11 12 13 14 15 15 15 15 15 15 14 13 11 10
19 20 20 21 22 25 25 25 25 24 22 20 18 17 13 9 9 10 10 11 12 11 12 11 9 7 7 7 7 7 8 8 9 11 12 13 14 14 15 16 16 16 16 15 15 14 13 12 11
19 20 21 21 22 24 25 25 25 24 23 22 20 17 14 11 12 13 13 13 13 12 12 11 9 8 8 8 8 9 9 10 11 12 13 14 15 15 15 16 16 16 15 15 15 14 13 12 12
17 18 19 19 20 21 23 24 24 24 24 22 20 18 15 12 13 13 14 15 15 13 12 11 10 9 9 9 9 10 11 11 12 13 14 15 15 15 15 15 15 15 15 14 15 15 14 13 12
15 15 15 16 16 18 20 22 22 22 22 21 20 19 15 14 15 15 15 15 16 14 12 11 11 9 9 9 10 11 11 12 13 14 14 14 15 14 14 14 14 15 14 14 15 14 13 13 13
14 14 14 14 15 16 17 19 19 20 20 19 18 15 13 12 15 16 16 15 16 15 13 12 11 9 9 10 11 11 12 13 13 14 13 13 13 13 13 13 13 14 14 14 14 13 13 13 12
13 13 13 14 15 16 17 18 17 18 18 18 16 14 12 12 14 17 17 16 15 16 14 12 11 10 9 9 10 11 12 12 12 11 11 11 11 12 12 12 13 13 13 13 13 13 13 13 13
13 12 13 15 16 16 17 18 18 17 16 15 14 12 12 12 14 16 18 17 16 15 14 12 10 9 8 9 10 10 10 10 10 10 9 10 10 10 11 11 11 12 13 13 13 13 13 13 13
13 13 14 16 16 16 16 17 18 17 15 14 12 11 12 13 13 17 18 17 17 16 15 12 11 9 8 9 9 9 9 8 7 7 8 9 9 10 10 10 10 11 12 13 13 13 13 13 14
13 13 14 16 17 17 17 17 17 16 14 11 10 11 13 13 14 17 18 18 17 16 14 12 10 8 7 8 8 8 7 7 7 7 7 8 8 8 8 9 9 10 11 11 12 12 12 13 13
13 13 14 16 17 18 18 17 17 15 13 10 9 9 10 11 14 17 18 17 17 15 13 12 9 7 6 6 6 6 6 6 6 6 6 7 7 7 8 9 9 10 10 10 11 11 11 12 13
13 14 15 17 17 18 18 17 16 15 13 10 9 7 7 8 11 15 17 16 15 14 12 11 10 8 7 6 5 5 5 4 4 5 6 6 7 7 7 8 9 10 10 10 10 11 11 11 11
13 14 16 17 17 17 17 16 14 14 11 9 7 5 5 6 9 13 15 16 15 14 13 12 10 9 7 6 4 3 3 3 4 5 5 5 6 6 7 8 8 9 10 10 10 11 11 11 11
13 14 16 17 16 16 16 16 14 13 9 7 4 3 4 6 7 11 13 14 15 15 14 12 11 9 7 5 4 3 3 3 4 4 5 5 5 6 7 7 8 9 10 10 10 10 11 11 11
13 14 15 16 15 16 15 15 13 11 9 6 4 1 4 6 6 9 12 14 14 13 13 12 11 10 7 6 4 3 3 3 4 4 4 5 5 6 7 8 9 9 10 10 10 10 10 11 11
12 12 15 16 15 14 14 13 12 10 8 6 3 1 3 4 6 8 11 13 13 12 12 12 10 8 7 5 4 3 3 3 3 3 4 5 5 6 7 8 9 10 10 10 10 10 10 11 11
13 13 14 14 13 13 12 12 11 9 8 6 3 1 2 3 6 8 10 12 12 11 11 10 9 8 7 6 5 4 3 3 3 3 4 5 5 7 7 8 9 9 10 10 10 11 11 11 12
14 14 13 12 11 11 10 10 10 10 8 7 5 2 3 4 6 8 10 10 10 11 10 9 8 9 7 6 5 4 3 3 3 4 5 5 6 7 7 8 8 9 10 11 11 11 12 12 13
15 15 13 11 10 9 9 8 8 9 8 7 5 3 2 4 5 7 9 8 9 9 9 9 8 8 7 6 5 4 4 4 4 5 5 6 7 7 8 9 9 10 11 11 12 13 13 13 14
15 15 13 10 8 8 7 7 7 7 7 6 5 4 3 3 4 6 7 8 8 8 9 8 8 7 6 6 5 5 5 6 6 6 6 7 8 8 9 9 10 11 11 12 13 14 14 15 16
15 15 14 13 10 8 6 6 7 7 6 6 5 3 3 3 4 5 7 6 6 6 7 7 7 7 7 6 6 6 7 7 7 7 8 9 9 10 10 11 12 12 13 14 15 16 17 17 18
16 15 15 14 12 9 6 6 6 7 7 6 5 4 2 1 2 3 5 5 5 6 6 6 7 7 8 8 8 8 8 9 9 9 10 11 11 12 13 13 14 15 16 17 18 18 19 19 20
17 17 16 15 15 12 7 6 7 7 7 6 6 5 4 3 2 3 4 5 6 7 7 8 8 9 9 9 9 9 10 10 11 12 12 13 14 15 16 16 17 18 19 19 20 21 21 22 23
17 18 17 17 17 15 12 9 9 9 9 8 7 6 6 5 5 5 6 8 8 9 9 9 10 10 11 11 11 11 12 13 13 14 15 16 17 17 18 19 20 20 21 22 23 24 24 25 25
17 17 17 18 17 16 15 11 11 11 10 9 9 9 9 8 8 8 9 10 10 11 11 11 12 12 13 13 13 14 15 15 16 17 18 18 19 20 21 22 22 23 24 25 26 26 27 27 27
Wind_Direction
308 305 302 300 295 291 288 286 287 290 297 294 288 274 219 193 183 185 185 194 216 225 224 223 215 209 199 176 151 136 115 73 28 3 353 348 346 346 345 345 346 349 352 355 357 357 357 359 3
304 301 299 296 293 290 287 285 287 294 299 300 302 283 226 200 193 183 182 194 214 230 232 227 217 210 202 185 168 156 147 355 342 340 337 336 337 337 336 336 338 339 342 345 346 347 346 347 350
303 299 295 292 289 289 288 288 290 293 298 303 305 283 249 213 194 183 183 191 212 230 231 223 214 211 207 198 190 199 256 303 318 323 324 322 322 322 322 323 326 328 329 332 333 334 336 335 332
305 300 295 291 290 288 288 289 291 295 299 302 303 291 273 245 208 181 184 190 208 225 225 221 214 211 208 211 223 249 276 292 302 307 312 312 310 310 311 313 317 319 320 321 323 324 325 325 322
304 299 294 290 288 287 286 288 291 294 297 302 301 296 281 273 234 197 192 193 207 220 222 220 214 213 216 226 245 266 278 282 288 295 300 302 302 303 305 308 311 313 314 314 314 314 313 313 314
305 300 293 289 286 285 285 287 289 292 295 299 300 295 290 269 233 219 207 206 216 223 222 220 217 219 227 240 253 266 274 280 284 289 292 295 298 299 301 302 305 307 309 308 308 307 304 302 304
308 304 296 291 286 284 284 287 287 290 292 293 294 292 288 268 240 221 217 216 218 223 222 219 219 224 236 248 259 266 272 280 286 289 290 292 293 294 295 298 301 301 302 303 303 302 298 296 295
312 308 303 297 290 285 285 285 287 290 292 291 291 288 279 266 238 230 224 219 216 218 220 218 222 228 242 252 259 266 273 280 284 288 290 289 290 292 294 297 298 298 299 300 300 299 297 294 292
320 315 311 306 297 291 288 286 287 290 293 292 288 284 274 252 237 234 227 223 217 215 215 217 222 233 247 257 260 266 275 279 282 285 288 289 289 291 294 295 295 294 296 296 297 296 295 293 293
329 325 321 316 310 303 296 291 291 290 291 293 289 282 270 248 236 233 231 224 217 211 214 218 224 236 251 260 265 270 277 279 281 286 288 288 290 290 292 292 293 294 293 294 295 296 295 294 292
337 338 335 329 323 318 309 302 298 293 290 290 290 284 268 251 235 226 222 216 210 209 212 219 225 233 248 261 269 272 277 279 282 288 289 290 290 290 292 293 292 293 294 294 295 294 293 293 292
339 341 341 337 330 324 322 318 312 306 299 295 289 281 260 250 233 223 219 218 212 209 214 216 225 235 248 261 271 273 277 282 286 290 290 289 290 290 292 294 292 293 294 293 293 292 289 289 289
342 345 343 341 335 328 326 325 320 315 309 300 290 272 253 241 227 215 213 213 211 214 215 215 227 236 245 258 270 275 279 283 286 286 287 290 294 294 293 294 294 294 294 294 293 291 291 290 290
345 348 348 347 342 335 334 331 328 324 316 304 288 267 250 238 224 215 214 213 213 216 215 214 222 234 244 257 267 274 281 285 287 289 292 294 297 297 297 298 299 298 296 294 292 292 292 291 290
342 346 349 351 349 343 339 336 332 331 322 311 295 269 250 234 213 210 209 210 211 210 211 213 218 225 236 250 260 269 274 281 289 291 293 296 299 300 302 304 305 303 301 299 297 296 295 294 292
340 344 346 345 344 345 342 339 335 331 328 315 298 273 246 225 213 210 210 207 205 204 205 207 207 211 222 235 250 261 269 277 287 292 296 300 302 304 305 306 306 306 305 303 303 303 300 299 297
339 340 341 340 341 344 344 339 333 332 329 318 300 272 236 218 210 209 207 203 205 201 200 201 200 203 211 224 237 254 267 276 285 294 303 307 307 306 304 304 308 310 309 307 306 305 304 302 301
339 339 341 341 342 343 341 338 335 335 333 321 305 274 225 207 201 197 198 202 197 196 195 196 196 200 205 211 228 247 264 277 290 301 313 315 313 312 311 313 318 320 319 317 313 310 309 307 304
339 341 345 345 345 345 342 338 336 338 342 344 322 272 216 196 193 195 195 195 194 193 197 196 193 192 194 205 218 233 256 279 296 305 314 317 317 317 318 322 326 328 327 324 321 317 314 312 310
337 341 344 346 347 350 346 342 345 350 355 0 357 276 189 190 188 187 189 194 191 190 190 189 185 181 187 197 211 231 257 284 298 307 315 319 321 325 329 330 329 329 329 328 326 323 320 316 314
338 339 343 344 346 353 354 353 355 1 6 10 21 98 167 178 184 181 185 186 187 189 188 184 175 172 180 191 204 224 249 273 289 304 317 325 328 330 332 333 333 332 331 330 328 327 325 322 319
338 336 337 338 341 348 354 2 4 8 13 20 34 95 165 177 182 182 181 182 186 186 184 178 178 179 183 188 198 214 235 261 284 303 317 327 332 334 334 334 336 335 335 333 331 329 327 326 323
337 338 334 333 337 340 345 359 7 10 17 24 38 77 156 165 165 168 170 173 179 183 180 177 182 186 187 190 197 213 235 262 283 297 309 317 324 327 329 331 333 334 334 333 331 330 328 325 322
333 335 332 332 331 337 343 353 4 8 16 28 41 63 140 170 168 170 170 165 169 177 181 182 183 185 187 196 205 219 241 261 275 286 298 308 314 318 321 324 327 328 329 329 329 329 326 323 321
328 332 332 333 337 342 340 342 351 356 6 19 33 53 93 138 156 164 169 170 172 178 181 183 183 189 197 207 216 232 249 262 272 281 291 299 306 312 315 318 319 319 321 322 323 323 323 322 321
318 323 325 327 332 334 331 334 334 343 346 355 8 31 71 116 149 165 173 175 178 183 192 195 200 206 212 220 231 243 256 265 272 279 286 293 301 306 309 310 310 311 313 314 315 316 316 317 317
312 311 314 315 318 320 315 320 317 322 328 329 333 340 353 119 155 171 189 196 201 203 208 212 218 223 227 233 241 251 261 268 274 280 286 291 296 299 301 303 305 306 307 309 310 311 312 312 312
302 305 304 306 309 307 291 292 297 295 311 312 312 310 305 291 244 224 220 223 223 223 225 227 231 237 241 245 251 258 264 270 275 280 285 289 292 295 298 300 302 304 304 305 307 308 308 308 308
297 297 298 299 301 298 289 280 283 286 291 296 292 291 289 283 270 253 242 237 235 233 235 238 242 246 250 255 259 263 267 270 275 280 284 287 289 292 295 297 298 299 300 301 302 303 305 306 306
296 296 295 294 296 294 288 279 271 277 278 280 279 282 280 275 271 264 253 245 242 240 240 242 247 251 255 259 263 265 269 272 277 281 284 286 289 290 292 294 295 296 297 298 299 301 303 304 305
Height
5898 5897 5897 5896 5895 5894 5891 5890 5889 5888 5887 5886 5884 5883 5883 5884 5885 5888 5888 5888 5889 5891 5891 5892 5892 5892 5892 5892 5892 5893 5893 5894 5895 5895 5896 5896 5896 5896 5896 5896 5896 5896 5896 5896 5896 5896 5895 5895 5895
5896 5896 5896 5894 5893 5891 5890 5888 5887 5886 5885 5884 5883 5882 5882 5882 5882 5883 5885 5887 5889 5890 5891 5891 5891 5891 5891 5891 5891 5892 5893 5893 5894 5894 5895 5895 5895 5895 5895 5895 5895 5895 5895 5895 5895 5895 5895 5895 5895
5894 5894 5894 5892 5890 5889 5888 5886 5886 5884 5884 5883 5882 5881 5881 5881 5880 5881 5884 5886 5887 5889 5890 5890 5890 5890 5891 5891 5891 5892 5892 5893 5893 5894 5894 5894 5894 5894 5894 5894 5894 5894 5894 5894 5894 5894 5894 5894 5894
5892 5891 5891 5889 5887 5886 5885 5885 5884 5883 5882 5881 5881 5881 5880 5880 5879 5880 5883 5884 5886 5888 5888 5889 5889 5889 5890 5890 5891 5891 5892 5892 5893 5893 5893 5893 5893 5893 5893 5893 5893 5892 5893 5893 5893 5893 5893 5892 5893
5889 5889 5888 5886 5884 5883 5882 5881 5881 5881 5880 5880 5879 5879 5878 5879 5879 5880 5881 5882 5884 5886 5887 5888 5888 5889 5889 5889 5890 5891 5891 5891 5892 5892 5892 5892 5892 5892 5892 5891 5891 5891 5891 5891 5891 5891 5891 5891 5891
5887 5886 5885 5883 5881 5880 5879 5878 5878 5878 5878 5878 5878 5877 5877 5877 5877 5878 5880 5881 5882 5884 5885 5886 5887 5887 5888 5888 5889 5889 5890 5891 5891 5891 5890 5890 5890 5890 5890 5890 5889 5889 5889 5889 5889 5889 5889 5889 5889
5885 5883 5881 5880 5878 5876 5876 5875 5874 5875 5875 5875 5875 5875 5874 5874 5876 5877 5878 5879 5880 5881 5883 5884 5885 5886 5886 5887 5888 5888 5889 5889 5889 5889 5889 5889 5888 5888 5888 5888 5888 5887 5887 5887 5886 5886 5886 5887 5887
5882 5881 5878 5876 5874 5873 5872 5871 5871 5871 5871 5872 5872 5871 5871 5872 5873 5874 5875 5876 5878 5879 5881 5882 5883 5884 5885 5885 5886 5886 5887 5887 5887 5887 5887 5886 5886 5886 5886 5886 5885 5885 5885 5884 5884 5884 5884 5884 5885
5879 5878 5875 5873 5872 5870 5869 5868 5867 5867 5867 5867 5867 5867 5868 5868 5869 5871 5872 5874 5876 5877 5878 5880 5881 5882 5883 5883 5884 5884 5885 5885 5885 5885 5885 5884 5884 5884 5884 5883 5883 5883 5882 5882 5882 5882 5882 5882 5882
5878 5876 5873 5871 5869 5868 5866 5865 5864 5863 5863 5862 5862 5862 5863 5864 5865 5867 5869 5871 5873 5874 5876 5877 5879 5880 5881 5881 5881 5882 5882 5882 5882 5882 5882 5882 5882 5881 5881 5881 5881 5881 5881 5880 5880 5880 5880 5880 5880
5876 5874 5872 5869 5868 5866 5864 5862 5860 5859 5858 5858 5857 5858 5858 5859 5861 5863 5866 5868 5869 5871 5873 5875 5877 5877 5878 5879 5879 5879 5880 5880 5880 5880 5880 5879 5879 5879 5879 5879 5879 5879 5878 5878 5878 5878 5878 5877 5877
5875 5873 5871 5869 5866 5864 5861 5859 5857 5855 5855 5854 5854 5854 5854 5855 5857 5859 5862 5864 5866 5868 5871 5872 5874 5875 5875 5876 5877 5877 5877 5878 5877 5877 5877 5877 5877 5877 5877 5876 5876 5876 5876 5876 5876 5876 5875 5875 5875
5875 5872 5870 5867 5865 5862 5859 5856 5854 5852 5851 5850 5850 5850 5850 5851 5853 5855 5858 5861 5863 5866 5868 5869 5871 5872 5873 5874 5875 5875 5875 5875 5875 5875 5875 5875 5875 5875 5875 5875 5874 5874 5874 5873 5873 5873 5873 5873 5873
5874 5871 5869 5866 5863 5859 5857 5853 5850 5848 5846 5845 5845 5846 5846 5847 5848 5851 5854 5857 5859 5861 5864 5866 5868 5869 5871 5872 5872 5873 5873 5874 5874 5874 5874 5874 5874 5874 5873 5873 5873 5872 5872 5871 5871 5870 5870 5870 5870
5873 5871 5868 5865 5861 5857 5855 5851 5848 5845 5843 5842 5842 5842 5842 5843 5844 5846 5849 5853 5855 5858 5861 5863 5865 5867 5868 5869 5870 5871 5871 5872 5872 5872 5872 5872 5872 5872 5872 5871 5871 5870 5870 5869 5869 5868 5868 5868 5867
5873 5870 5867 5864 5860 5856 5854 5850 5846 5843 5841 5840 5839 5839 5839 5840 5841 5843 5846 5848 5852 5855 5858 5861 5863 5865 5866 5867 5868 5869 5870 5870 5871 5871 5871 5871 5871 5871 5870 5870 5869 5868 5868 5867 5867 5866 5865 5865 5865
5873 5870 5866 5863 5859 5855 5852 5848 5845 5842 5840 5838 5837 5837 5837 5838 5839 5841 5843 5846 5850 5853 5857 5859 5861 5863 5865 5866 5867 5867 5868 5869 5869 5870 5870 5869 5869 5869 5869 5868 5868 5867 5866 5865 5865 5864 5863 5863 5862
5872 5869 5865 5862 5858 5854 5850 5847 5844 5841 5839 5837 5836 5835 5835 5836 5837 5839 5842 5845 5848 5851 5855 5857 5859 5861 5863 5864 5865 5866 5867 5868 5868 5868 5868 5868 5868 5868 5867 5867 5866 5865 5864 5863 5863 5862 5861 5860 5860
5871 5868 5865 5861 5857 5854 5850 5846 5843 5840 5838 5836 5835 5834 5834 5835 5836 5838 5841 5843 5846 5849 5853 5855 5857 5860 5862 5863 5864 5865 5866 5866 5867 5867 5867 5867 5867 5866 5866 5865 5864 5864 5863 5862 5861 5860 5859 5858 5858
5870 5867 5864 5861 5857 5853 5850 5846 5843 5840 5838 5836 5835 5834 5835 5835 5836 5839 5841 5843 5845 5848 5850 5853 5856 5858 5860 5862 5863 5864 5865 5865 5866 5866 5866 5866 5865 5865 5864 5864 5863 5862 5861 5860 5859 5858 5857 5856 5856
5869 5866 5864 5861 5857 5854 5851 5848 5845 5842 5839 5838 5837 5836 5836 5836 5837 5838 5840 5843 5845 5848 5850 5853 5855 5856 5859 5860 5861 5863 5864 5864 5865 5865 5865 5865 5864 5864 5863 5862 5861 5861 5860 5859 5858 5857 5856 5854 5854
5867 5865 5863 5860 5857 5854 5852 5849 5846 5843 5841 5839 5838 5837 5837 5837 5837 5839 5840 5842 5845 5848 5850 5852 5854 5856 5858 5859 5860 5862 5863 5863 5863 5863 5863 5863 5863 5862 5862 5861 5860 5859 5858 5857 5856 5855 5854 5853 5851
5866 5864 5862 5859 5857 5855 5853 5850 5848 5845 5843 5841 5839 5838 5838 5838 5839 5840 5841 5843 5845 5847 5849 5851 5854 5856 5857 5858 5859 5861 5861 5862 5862 5862 5862 5862 5862 5861 5860 5859 5859 5858 5856 5855 5854 5853 5852 5850 5849
5864 5863 5861 5859 5857 5856 5853 5852 5850 5847 5845 5843 5842 5840 5840 5840 5840 5841 5842 5844 5846 5848 5850 5852 5853 5855 5856 5857 5858 5859 5860 5860 5861 5861 5861 5861 5860 5860 5859 5858 5857 5856 5855 5853 5852 5850 5849 5848 5846
5863 5862 5860 5858 5857 5856 5854 5852 5851 5848 5847 5845 5844 5843 5842 5841 5842 5842 5843 5845 5846 5848 5850 5851 5853 5854 5855 5856 5857 5858 5859 5859 5859 5859 5859 5859 5858 5858 5857 5856 5855 5853 5852 5851 5849 5848 5846 5845 5843
5861 5860 5859 5857 5856 5855 5853 5852 5852 5849 5847 5846 5845 5844 5843 5843 5842 5843 5844 5845 5846 5848 5849 5850 5851 5852 5853 5855 5856 5857 5857 5857 5857 5857 5857 5857 5856 5855 5854 5853 5852 5850 5849 5847 5846 5844 5843 5841 5839
5858 5857 5857 5855 5854 5854 5853 5853 5851 5850 5848 5847 5846 5845 5844 5843 5843 5843 5844 5845 5846 5847 5848 5849 5850 5851 5852 5853 5854 5854 5855 5855 5855 5855 5854 5854 5853 5852 5851 5849 5848 5847 5845 5844 5842 5840 5839 5837 5835
5856 5854 5854 5853 5851 5851 5851 5851 5851 5849 5848 5847 5846 5845 5844 5844 5843 5843 5844 5844 5845 5846 5847 5848 5849 5850 5851 5851 5851 5852 5852 5852 5852 5852 5851 5850 5849 5848 5847 5846 5844 5843 5841 5839 5837 5836 5834 5832 5830
5852 5851 5850 5849 5849 5848 5848 5851 5849 5848 5847 5846 5845 5844 5843 5843 5843 5843 5843 5843 5844 5845 5845 5846 5847 5847 5848 5848 5848 5848 5849 5849 5848 5848 5847 5846 5845 5844 5842 5841 5839 5838 5836 5834 5832 5830 5828 5826 5824
5848 5847 5847 5846 5845 5845 5845 5848 5846 5845 5845 5845 5844 5843 5842 5842 5842 5841 5841 5842 5842 5842 5843 5844 5844 5844 5845 5845 5845 5845 5845 5844 5843 5843 5842 5841 5840 5838 5837 5835 5834 5832 5830 5829 5826 5824 5822 5819 5817